ANA468 ROAH-RJTT

Flight info

Callsign ANA468
Flight time 2h 2m
Altitude 35000
Route ESKOB3 AMAMI Y574 SHIBK Y57 SUKBO Y571 BILLY Y21 AKSEL
Aircraft B738/L-VGDW/C

Departure

Time 2026-05-07 06:57
Airport Naha International Airport (ROAH)

Arrival

Time 2026-05-07 08:59
Airport Tokyo Haneda International Airport (RJTT)
Time Latitude Longitude Altitude Speed Heading
2026-05-07 06:33 26.20842 127.64911 20 ft 0 kts 157°
2026-05-07 06:48 26.20846 127.64909 20 ft 2 kts 157°
2026-05-07 06:48 26.20864 127.64901 22 ft 3 kts 154°
2026-05-07 06:48 26.20881 127.64890 21 ft 3 kts 140°
2026-05-07 06:49 26.20895 127.64875 23 ft 3 kts 128°
2026-05-07 06:49 26.20906 127.64856 20 ft 3 kts 115°
2026-05-07 06:49 26.20913 127.64836 19 ft 3 kts 98°
2026-05-07 06:49 26.20914 127.64817 18 ft 1 kts 85°
2026-05-07 06:50 26.20913 127.64802 18 ft 3 kts 80°
2026-05-07 06:50 26.20908 127.64781 21 ft 3 kts 66°
2026-05-07 06:50 26.20899 127.64761 20 ft 3 kts 49°
2026-05-07 06:50 26.20884 127.64746 18 ft 3 kts 29°
2026-05-07 06:51 26.20866 127.64738 19 ft 3 kts 12°
2026-05-07 06:51 26.20846 127.64735 16 ft 3 kts 359°
2026-05-07 06:51 26.20836 127.64735 16 ft 0 kts 357°
2026-05-07 06:53 26.20849 127.64734 16 ft 5 kts 353°
2026-05-07 06:54 26.20892 127.64713 17 ft 8 kts 314°
2026-05-07 06:54 26.20902 127.64657 15 ft 4 kts 267°
2026-05-07 06:54 26.20902 127.64651 15 ft 0 kts 266°
2026-05-07 06:55 26.20901 127.64636 15 ft 8 kts 266°
2026-05-07 06:56 26.20897 127.64561 17 ft 10 kts 264°
2026-05-07 06:56 26.20851 127.64526 17 ft 8 kts 176°
2026-05-07 06:56 26.20791 127.64530 18 ft 14 kts 177°
2026-05-07 06:56 26.20388 127.64547 18 ft 112 kts 179°
2026-05-07 06:57 26.19290 127.64601 212 ft 189 kts 178°
2026-05-07 06:57 26.17890 127.64695 1250 ft 208 kts 176°
2026-05-07 06:57 26.16350 127.64792 1993 ft 234 kts 177°
2026-05-07 06:57 26.14704 127.64870 2791 ft 240 kts 178°
2026-05-07 06:58 26.13016 127.64945 3637 ft 245 kts 179°
2026-05-07 06:58 26.11269 127.65020 4360 ft 260 kts 180°
2026-05-07 06:58 26.09412 127.65098 5178 ft 273 kts 180°
2026-05-07 06:58 26.07494 127.65180 6197 ft 278 kts 181°
2026-05-07 06:59 26.05542 127.65262 7187 ft 283 kts 181°
2026-05-07 06:59 26.03593 127.65604 8241 ft 290 kts 161°
2026-05-07 06:59 26.01952 127.66901 9299 ft 302 kts 134°
2026-05-07 06:59 26.00993 127.69043 10277 ft 317 kts 104°
2026-05-07 07:00 26.00879 127.71541 10748 ft 343 kts 90°
2026-05-07 07:00 26.01242 127.74268 10918 ft 373 kts 70°
2026-05-07 07:00 26.02626 127.76790 11146 ft 394 kts 49°
2026-05-07 07:00 26.04459 127.79105 11620 ft 404 kts 47°
2026-05-07 07:01 26.06338 127.81455 12273 ft 408 kts 48°
2026-05-07 07:01 26.08193 127.83849 12982 ft 410 kts 49°
2026-05-07 07:01 26.10028 127.86296 13633 ft 413 kts 50°
2026-05-07 07:01 26.11852 127.88782 14181 ft 417 kts 51°
2026-05-07 07:02 26.13687 127.91303 14700 ft 420 kts 51°
2026-05-07 07:02 26.15534 127.93843 15209 ft 424 kts 50°
2026-05-07 07:02 26.17530 127.96267 15683 ft 427 kts 38°
2026-05-07 07:02 26.20023 127.98046 16217 ft 427 kts 28°
2026-05-07 07:03 26.22595 127.99713 16709 ft 430 kts 28°
2026-05-07 07:03 26.25187 128.01403 17167 ft 434 kts 28°
2026-05-07 07:03 26.27798 128.03128 17630 ft 437 kts 29°
2026-05-07 07:03 26.30410 128.04872 18069 ft 440 kts 29°
2026-05-07 07:04 26.33041 128.06644 18474 ft 443 kts 29°
2026-05-07 07:04 26.35686 128.08433 18859 ft 446 kts 29°
2026-05-07 07:04 26.38347 128.10236 19224 ft 449 kts 29°
2026-05-07 07:04 26.41022 128.12051 19590 ft 452 kts 29°
2026-05-07 07:05 26.43715 128.13879 19949 ft 454 kts 29°
2026-05-07 07:05 26.46421 128.15717 20305 ft 457 kts 29°
2026-05-07 07:05 26.49147 128.17568 20643 ft 460 kts 29°
2026-05-07 07:05 26.51890 128.19432 20962 ft 463 kts 29°
2026-05-07 07:06 26.54647 128.21306 21317 ft 465 kts 29°
2026-05-07 07:06 26.57411 128.23186 21652 ft 467 kts 29°
2026-05-07 07:06 26.60193 128.25080 21967 ft 470 kts 29°
2026-05-07 07:06 26.62988 128.26983 22268 ft 472 kts 29°
2026-05-07 07:07 26.65804 128.28901 22573 ft 475 kts 29°
2026-05-07 07:07 26.68576 128.30916 22851 ft 480 kts 36°
2026-05-07 07:07 26.70893 128.33643 23102 ft 486 kts 51°
2026-05-07 07:07 26.72952 128.36645 23413 ft 488 kts 51°
2026-05-07 07:08 26.75013 128.39671 23659 ft 490 kts 51°
2026-05-07 07:08 26.77100 128.42698 23874 ft 492 kts 51°
2026-05-07 07:08 26.79217 128.45725 24117 ft 494 kts 50°
2026-05-07 07:08 26.81350 128.48742 24363 ft 495 kts 50°
2026-05-07 07:09 26.83498 128.51766 24594 ft 496 kts 50°
2026-05-07 07:09 26.85650 128.54794 24814 ft 499 kts 50°
2026-05-07 07:09 26.87810 128.57837 25008 ft 501 kts 50°
2026-05-07 07:09 26.89981 128.60900 25227 ft 502 kts 50°
2026-05-07 07:10 26.92164 128.63959 25450 ft 503 kts 47°
2026-05-07 07:10 26.94730 128.66586 25622 ft 498 kts 30°
2026-05-07 07:10 26.97755 128.68428 25896 ft 494 kts 24°
2026-05-07 07:10 27.00812 128.70195 26128 ft 495 kts 24°
2026-05-07 07:11 27.03877 128.71990 26304 ft 498 kts 24°
2026-05-07 07:11 27.06943 128.73811 26476 ft 500 kts 24°
2026-05-07 07:11 27.10011 128.75656 26654 ft 501 kts 25°
2026-05-07 07:11 27.13085 128.77518 26867 ft 502 kts 25°
2026-05-07 07:12 27.16156 128.79387 27048 ft 503 kts 25°
2026-05-07 07:12 27.19238 128.81265 27224 ft 504 kts 25°
2026-05-07 07:12 27.22328 128.83150 27411 ft 506 kts 25°
2026-05-07 07:12 27.25424 128.85038 27567 ft 507 kts 25°
2026-05-07 07:13 27.28527 128.86930 27753 ft 508 kts 25°
2026-05-07 07:13 27.31630 128.88823 28022 ft 507 kts 25°
2026-05-07 07:13 27.33679 128.90074 28222 ft 506 kts 24°
2026-05-07 07:13 27.36767 128.91960 28557 ft 503 kts 24°
2026-05-07 07:14 27.39838 128.93836 28860 ft 502 kts 24°
2026-05-07 07:14 27.43901 128.96319 29226 ft 502 kts 24°
2026-05-07 07:14 27.45974 128.97586 29428 ft 502 kts 24°
2026-05-07 07:14 27.49044 128.99464 29755 ft 501 kts 24°
2026-05-07 07:15 27.53098 129.01946 30195 ft 500 kts 24°
2026-05-07 07:15 27.56145 129.03814 30504 ft 498 kts 24°
2026-05-07 07:15 27.58202 129.05075 30723 ft 497 kts 24°
2026-05-07 07:15 27.61234 129.06936 31056 ft 496 kts 24°
2026-05-07 07:16 27.64258 129.08793 31390 ft 494 kts 24°
2026-05-07 07:16 27.67272 129.10643 31712 ft 493 kts 24°
2026-05-07 07:16 27.70282 129.12494 32040 ft 492 kts 24°
2026-05-07 07:16 27.73276 129.14335 32426 ft 489 kts 24°
2026-05-07 07:17 27.76258 129.16171 32835 ft 486 kts 24°
2026-05-07 07:17 27.79224 129.17998 33187 ft 485 kts 24°
2026-05-07 07:17 27.82191 129.19825 33516 ft 485 kts 24°
2026-05-07 07:17 27.85152 129.21650 33833 ft 485 kts 24°
2026-05-07 07:18 27.88110 129.23475 34181 ft 483 kts 24°
2026-05-07 07:18 27.91053 129.25292 34516 ft 482 kts 24°
2026-05-07 07:18 27.93992 129.27107 34831 ft 481 kts 23°
2026-05-07 07:18 27.96939 129.28928 34975 ft 484 kts 23°
2026-05-07 07:19 28.02878 129.32599 34979 ft 487 kts 24°
2026-05-07 07:19 28.08785 129.36262 34969 ft 481 kts 23°
2026-05-07 07:20 28.14606 129.39875 34975 ft 479 kts 23°
2026-05-07 07:20 28.20439 129.43496 34979 ft 478 kts 23°
2026-05-07 07:21 28.26280 129.47127 34962 ft 479 kts 23°
2026-05-07 07:21 28.32133 129.50771 34961 ft 481 kts 23°
2026-05-07 07:22 28.38005 129.54432 34954 ft 482 kts 23°
2026-05-07 07:22 28.40876 129.56424 34925 ft 491 kts 34°
2026-05-07 07:22 28.43195 129.59311 34951 ft 501 kts 53°
2026-05-07 07:23 28.44783 129.62855 34937 ft 508 kts 70°
2026-05-07 07:23 28.45505 129.66795 34960 ft 511 kts 81°
2026-05-07 07:23 28.46281 129.74836 34934 ft 513 kts 83°
2026-05-07 07:24 28.47043 129.82897 34930 ft 513 kts 82°
2026-05-07 07:24 28.47893 129.90942 34946 ft 513 kts 82°
2026-05-07 07:25 28.49198 130.02996 34954 ft 512 kts 82°
2026-05-07 07:26 28.50203 130.10999 34942 ft 510 kts 74°
2026-05-07 07:26 28.52767 130.18432 34966 ft 503 kts 57°
2026-05-07 07:27 28.56670 130.24964 34976 ft 499 kts 50°
2026-05-07 07:27 28.60681 130.31406 34967 ft 499 kts 51°
2026-05-07 07:28 28.64638 130.37903 34965 ft 499 kts 51°
2026-05-07 07:28 28.68568 130.44428 34968 ft 500 kts 52°
2026-05-07 07:29 28.72496 130.50955 34967 ft 500 kts 52°
2026-05-07 07:29 28.76428 130.57485 34966 ft 500 kts 52°
2026-05-07 07:30 28.80360 130.64020 34961 ft 500 kts 52°
2026-05-07 07:30 28.84286 130.70557 34962 ft 500 kts 52°
2026-05-07 07:31 28.88186 130.77063 34962 ft 500 kts 52°
2026-05-07 07:31 28.92111 130.83620 34961 ft 500 kts 52°
2026-05-07 07:32 28.96029 130.90177 34957 ft 500 kts 52°
2026-05-07 07:32 28.99947 130.96744 34967 ft 500 kts 52°
2026-05-07 07:33 29.03864 131.03320 34962 ft 500 kts 52°
2026-05-07 07:33 29.07775 131.09895 34961 ft 500 kts 52°
2026-05-07 07:34 29.11682 131.16475 34960 ft 499 kts 52°
2026-05-07 07:34 29.15575 131.23043 34957 ft 499 kts 52°
2026-05-07 07:35 29.19465 131.29615 34958 ft 498 kts 52°
2026-05-07 07:35 29.23346 131.36180 34956 ft 498 kts 52°
2026-05-07 07:36 29.27216 131.42740 34963 ft 497 kts 52°
2026-05-07 07:36 29.31088 131.49312 34956 ft 497 kts 52°
2026-05-07 07:37 29.34954 131.55886 34958 ft 497 kts 52°
2026-05-07 07:37 29.38819 131.62467 34970 ft 497 kts 52°
2026-05-07 07:38 29.42676 131.69049 34958 ft 498 kts 52°
2026-05-07 07:38 29.46533 131.75643 34953 ft 498 kts 52°
2026-05-07 07:39 29.50386 131.82241 34953 ft 497 kts 53°
2026-05-07 07:39 29.54235 131.88842 34958 ft 497 kts 53°
2026-05-07 07:40 29.58080 131.95448 34953 ft 497 kts 53°
2026-05-07 07:40 29.61922 132.02060 34951 ft 497 kts 53°
2026-05-07 07:41 29.65749 132.08613 34966 ft 497 kts 51°
2026-05-07 07:41 29.70018 132.14828 34956 ft 495 kts 46°
2026-05-07 07:42 29.74455 132.20876 34947 ft 495 kts 46°
2026-05-07 07:42 29.78869 132.26953 34969 ft 495 kts 47°
2026-05-07 07:43 29.83250 132.33085 34953 ft 496 kts 47°
2026-05-07 07:43 29.87615 132.39240 34953 ft 496 kts 47°
2026-05-07 07:44 29.91976 132.45403 34953 ft 496 kts 47°
2026-05-07 07:44 29.96332 132.51562 34950 ft 496 kts 47°
2026-05-07 07:45 30.00688 132.57727 34951 ft 496 kts 47°
2026-05-07 07:45 30.05039 132.63895 34947 ft 495 kts 47°
2026-05-07 07:46 30.09379 132.70058 34952 ft 495 kts 48°
2026-05-07 07:46 30.13722 132.76233 34950 ft 495 kts 48°
2026-05-07 07:47 30.18056 132.82405 34951 ft 494 kts 48°
2026-05-07 07:47 30.22383 132.88578 34949 ft 495 kts 48°
2026-05-07 07:48 30.26714 132.94766 34950 ft 495 kts 48°
2026-05-07 07:48 30.31041 133.00957 34948 ft 495 kts 48°
2026-05-07 07:49 30.35365 133.07153 34947 ft 495 kts 48°
2026-05-07 07:49 30.39688 133.13359 34947 ft 495 kts 48°
2026-05-07 07:50 30.44006 133.19566 34947 ft 495 kts 48°
2026-05-07 07:50 30.48291 133.25736 34945 ft 494 kts 48°
2026-05-07 07:51 30.52595 133.31944 34946 ft 494 kts 48°
2026-05-07 07:51 30.56890 133.38147 34948 ft 493 kts 48°
2026-05-07 07:52 30.61182 133.44357 34944 ft 493 kts 48°
2026-05-07 07:52 30.65468 133.50567 34945 ft 492 kts 49°
2026-05-07 07:53 30.69744 133.56772 34947 ft 492 kts 49°
2026-05-07 07:53 30.74015 133.62981 34949 ft 492 kts 49°
2026-05-07 07:54 30.78280 133.69191 34947 ft 491 kts 49°
2026-05-07 07:54 30.82544 133.75407 34948 ft 491 kts 49°
2026-05-07 07:55 30.86808 133.81626 34953 ft 491 kts 49°
2026-05-07 07:55 30.91064 133.87845 34946 ft 491 kts 49°
2026-05-07 07:56 30.95320 133.94076 34948 ft 491 kts 49°
2026-05-07 07:56 30.99575 134.00316 34951 ft 491 kts 49°
2026-05-07 07:57 31.03820 134.06552 34949 ft 491 kts 49°
2026-05-07 07:57 31.08061 134.12790 34950 ft 491 kts 49°
2026-05-07 07:58 31.12299 134.19034 34954 ft 491 kts 49°
2026-05-07 07:58 31.16535 134.25287 34948 ft 491 kts 49°
2026-05-07 07:59 31.20764 134.31539 34964 ft 490 kts 49°
2026-05-07 07:59 31.24990 134.37797 34956 ft 490 kts 49°
2026-05-07 08:00 31.29187 134.44020 34956 ft 491 kts 49°
2026-05-07 08:00 31.33405 134.50286 34956 ft 490 kts 49°
2026-05-07 08:01 31.37619 134.56556 34955 ft 489 kts 49°
2026-05-07 08:01 31.41817 134.62812 34950 ft 489 kts 49°
2026-05-07 08:02 31.46010 134.69071 34962 ft 488 kts 49°
2026-05-07 08:02 31.49510 134.74303 34952 ft 487 kts 49°
2026-05-07 08:03 31.53685 134.80554 34954 ft 487 kts 49°
2026-05-07 08:03 31.57854 134.86806 34962 ft 487 kts 50°
2026-05-07 08:04 31.61997 134.93028 34959 ft 487 kts 50°
2026-05-07 08:04 31.66166 134.99302 34955 ft 487 kts 50°
2026-05-07 08:05 31.70329 135.05575 34959 ft 487 kts 50°
2026-05-07 08:05 31.74639 135.11687 34954 ft 485 kts 45°
2026-05-07 08:06 31.79190 135.17534 34957 ft 485 kts 44°
2026-05-07 08:06 31.83750 135.23359 34947 ft 484 kts 45°
2026-05-07 08:07 31.88273 135.29222 34951 ft 484 kts 45°
2026-05-07 08:07 31.92773 135.35106 34954 ft 483 kts 45°
2026-05-07 08:08 31.97266 135.40998 34967 ft 483 kts 45°
2026-05-07 08:08 32.01749 135.46883 34953 ft 483 kts 45°
2026-05-07 08:09 32.06230 135.52771 34953 ft 482 kts 45°
2026-05-07 08:09 32.10700 135.58654 34961 ft 481 kts 45°
2026-05-07 08:10 32.15159 135.64532 34957 ft 480 kts 45°
2026-05-07 08:10 32.19612 135.70411 34956 ft 480 kts 45°
2026-05-07 08:11 32.24022 135.76243 34948 ft 479 kts 46°
2026-05-07 08:11 32.28453 135.82113 34966 ft 478 kts 46°
2026-05-07 08:12 32.32874 135.87977 34952 ft 477 kts 46°
2026-05-07 08:12 32.37281 135.93835 34950 ft 476 kts 46°
2026-05-07 08:13 32.41682 135.99691 34957 ft 476 kts 46°
2026-05-07 08:13 32.46085 136.05555 34962 ft 477 kts 46°
2026-05-07 08:14 32.50488 136.11421 34964 ft 477 kts 46°
2026-05-07 08:14 32.54896 136.17305 34959 ft 478 kts 46°
2026-05-07 08:15 32.59309 136.23206 34958 ft 479 kts 46°
2026-05-07 08:15 32.63731 136.29130 34964 ft 480 kts 46°
2026-05-07 08:16 32.68165 136.35079 34953 ft 482 kts 46°
2026-05-07 08:16 32.72609 136.41051 34957 ft 484 kts 47°
2026-05-07 08:17 32.77070 136.47058 34958 ft 486 kts 47°
2026-05-07 08:17 32.81540 136.53086 34956 ft 487 kts 47°
2026-05-07 08:18 32.86026 136.59146 34955 ft 489 kts 48°
2026-05-07 08:18 32.90527 136.65235 34960 ft 491 kts 48°
2026-05-07 08:19 32.95047 136.71354 34961 ft 493 kts 48°
2026-05-07 08:19 32.99583 136.77499 34955 ft 494 kts 48°
2026-05-07 08:20 33.04127 136.83668 34957 ft 496 kts 49°
2026-05-07 08:20 33.08678 136.89859 34965 ft 497 kts 49°
2026-05-07 08:21 33.13240 136.96075 34953 ft 498 kts 49°
2026-05-07 08:21 33.17777 137.02269 34962 ft 499 kts 49°
2026-05-07 08:22 33.22351 137.08522 34962 ft 500 kts 49°
2026-05-07 08:22 33.26929 137.14791 34959 ft 501 kts 49°
2026-05-07 08:23 33.31506 137.21071 34959 ft 501 kts 49°
2026-05-07 08:23 33.36077 137.27356 34959 ft 501 kts 49°
2026-05-07 08:24 33.40644 137.33647 34959 ft 500 kts 49°
2026-05-07 08:24 33.45199 137.39931 34953 ft 499 kts 49°
2026-05-07 08:25 33.49746 137.46217 34956 ft 499 kts 50°
2026-05-07 08:25 33.54287 137.52506 34957 ft 499 kts 50°
2026-05-07 08:26 33.61043 137.62002 34947 ft 499 kts 54°
2026-05-07 08:26 33.64562 137.69133 34954 ft 497 kts 63°
2026-05-07 08:27 33.67814 137.76458 34960 ft 498 kts 63°
2026-05-07 08:27 33.71106 137.83784 34951 ft 499 kts 63°
2026-05-07 08:28 33.74440 137.91102 34955 ft 500 kts 63°
2026-05-07 08:28 33.77760 137.98378 34953 ft 500 kts 63°
2026-05-07 08:29 33.81103 138.05727 34950 ft 501 kts 63°
2026-05-07 08:29 33.84439 138.13082 34952 ft 501 kts 63°
2026-05-07 08:30 33.87771 138.20446 34951 ft 501 kts 63°
2026-05-07 08:30 33.91128 138.27878 34949 ft 502 kts 63°
2026-05-07 08:31 33.94416 138.35224 34950 ft 502 kts 63°
2026-05-07 08:31 33.97711 138.42640 34950 ft 502 kts 63°
2026-05-07 08:32 34.01006 138.50071 34951 ft 503 kts 63°
2026-05-07 08:32 34.04300 138.57505 34951 ft 503 kts 63°
2026-05-07 08:33 34.07589 138.64943 34948 ft 503 kts 63°
2026-05-07 08:33 34.10876 138.72393 34945 ft 503 kts 63°
2026-05-07 08:34 34.14155 138.79841 34949 ft 503 kts 63°
2026-05-07 08:34 34.17429 138.87295 34941 ft 503 kts 63°
2026-05-07 08:35 34.20708 138.94774 34293 ft 504 kts 64°
2026-05-07 08:35 34.22342 138.98507 33572 ft 501 kts 64°
2026-05-07 08:35 34.23966 139.02220 32867 ft 498 kts 64°
2026-05-07 08:36 34.25577 139.05907 32180 ft 495 kts 64°
2026-05-07 08:36 34.27178 139.09576 31491 ft 492 kts 64°
2026-05-07 08:36 34.28747 139.13245 30782 ft 489 kts 67°
2026-05-07 08:36 34.30138 139.16989 29858 ft 489 kts 70°
2026-05-07 08:37 34.31439 139.20780 29145 ft 485 kts 71°
2026-05-07 08:37 34.32709 139.24587 28586 ft 493 kts 71°
2026-05-07 08:37 34.34003 139.28475 28015 ft 503 kts 70°
2026-05-07 08:37 34.35316 139.32368 27441 ft 494 kts 70°
2026-05-07 08:38 34.36596 139.36118 26882 ft 484 kts 70°
2026-05-07 08:38 34.37873 139.39838 26350 ft 474 kts 69°
2026-05-07 08:38 34.39128 139.43485 25825 ft 466 kts 69°
2026-05-07 08:38 34.40379 139.47127 25291 ft 459 kts 69°
2026-05-07 08:39 34.41595 139.50674 24761 ft 453 kts 69°
2026-05-07 08:39 34.42796 139.54186 24242 ft 453 kts 69°
2026-05-07 08:39 34.44015 139.57762 23711 ft 467 kts 69°
2026-05-07 08:39 34.45262 139.61417 23090 ft 467 kts 69°
2026-05-07 08:40 34.46491 139.65020 22513 ft 458 kts 69°
2026-05-07 08:40 34.47810 139.68487 21964 ft 449 kts 60°
2026-05-07 08:40 34.49630 139.71509 21467 ft 440 kts 47°
2026-05-07 08:40 34.51816 139.74019 21211 ft 428 kts 37°
2026-05-07 08:41 34.54328 139.76037 20835 ft 442 kts 28°
2026-05-07 08:41 34.57012 139.77940 20350 ft 450 kts 27°
2026-05-07 08:41 34.59691 139.79835 19806 ft 442 kts 28°
2026-05-07 08:41 34.62309 139.81725 19286 ft 434 kts 28°
2026-05-07 08:42 34.64869 139.83604 18761 ft 427 kts 28°
2026-05-07 08:42 34.67420 139.85368 18253 ft 417 kts 20°
2026-05-07 08:42 34.70126 139.86217 17740 ft 400 kts
2026-05-07 08:42 34.72906 139.86583 17270 ft 395 kts
2026-05-07 08:43 34.75590 139.86917 16781 ft 391 kts
2026-05-07 08:43 34.78293 139.87264 16317 ft 394 kts
2026-05-07 08:43 34.81061 139.87631 15831 ft 404 kts
2026-05-07 08:43 34.83853 139.88017 15323 ft 402 kts
2026-05-07 08:44 34.86603 139.88410 14827 ft 393 kts
2026-05-07 08:44 34.89290 139.88795 14349 ft 386 kts
2026-05-07 08:44 34.91931 139.89171 13870 ft 379 kts
2026-05-07 08:44 34.94531 139.89463 13372 ft 370 kts 355°
2026-05-07 08:45 34.96997 139.88932 12986 ft 356 kts 339°
2026-05-07 08:45 34.99374 139.88135 12536 ft 354 kts 339°
2026-05-07 08:45 35.01764 139.87345 12181 ft 360 kts 340°
2026-05-07 08:45 35.04223 139.86541 11738 ft 369 kts 340°
2026-05-07 08:46 35.06701 139.85747 11277 ft 366 kts 340°
2026-05-07 08:46 35.09121 139.84982 11013 ft 351 kts 340°
2026-05-07 08:46 35.11436 139.84254 10861 ft 336 kts 340°
2026-05-07 08:46 35.13651 139.83555 10699 ft 322 kts 340°
2026-05-07 08:47 35.15780 139.82881 10568 ft 310 kts 340°
2026-05-07 08:47 35.17832 139.82230 10434 ft 299 kts 340°
2026-05-07 08:47 35.19828 139.81597 10312 ft 295 kts 340°
2026-05-07 08:47 35.21808 139.80965 10195 ft 294 kts 340°
2026-05-07 08:48 35.23787 139.80334 10070 ft 293 kts 340°
2026-05-07 08:48 35.25734 139.79716 9851 ft 287 kts 340°
2026-05-07 08:48 35.27656 139.79105 9568 ft 284 kts 340°
2026-05-07 08:48 35.29557 139.78503 9278 ft 281 kts 341°
2026-05-07 08:49 35.31520 139.78400 8952 ft 290 kts
2026-05-07 08:49 35.32767 139.78996 8787 ft 292 kts 27°
2026-05-07 08:49 35.34394 139.80453 8528 ft 290 kts 37°
2026-05-07 08:49 35.36464 139.82557 8152 ft 287 kts 38°
2026-05-07 08:50 35.37478 139.83591 7964 ft 286 kts 37°
2026-05-07 08:50 35.39000 139.85124 7785 ft 280 kts 37°
2026-05-07 08:50 35.40492 139.86610 7639 ft 273 kts 37°
2026-05-07 08:50 35.41946 139.88053 7522 ft 265 kts 37°
2026-05-07 08:51 35.43364 139.89456 7393 ft 259 kts 37°
2026-05-07 08:51 35.44719 139.90935 7165 ft 261 kts 43°
2026-05-07 08:51 35.45998 139.92506 6928 ft 260 kts 44°
2026-05-07 08:51 35.47258 139.94077 6717 ft 255 kts 44°
2026-05-07 08:52 35.48485 139.95600 6468 ft 247 kts 44°
2026-05-07 08:52 35.49676 139.97067 6215 ft 239 kts 44°
2026-05-07 08:52 35.50836 139.98490 5969 ft 231 kts 44°
2026-05-07 08:52 35.51952 139.99855 5768 ft 222 kts 44°
2026-05-07 08:53 35.53022 140.01165 5533 ft 214 kts 44°
2026-05-07 08:53 35.54066 140.02440 5310 ft 207 kts 43°
2026-05-07 08:53 35.55284 140.03289 5135 ft 202 kts
2026-05-07 08:53 35.56673 140.03354 4970 ft 201 kts 355°
2026-05-07 08:54 35.58054 140.03176 4748 ft 199 kts 334°
2026-05-07 08:54 35.59081 140.02141 4545 ft 190 kts 301°
2026-05-07 08:54 35.59767 140.00782 4347 ft 186 kts 296°
2026-05-07 08:54 35.60363 139.99396 4142 ft 181 kts 286°
2026-05-07 08:55 35.60490 139.97887 3928 ft 178 kts 266°
2026-05-07 08:55 35.60482 139.96364 3656 ft 178 kts 266°
2026-05-07 08:55 35.60472 139.94844 3388 ft 177 kts 265°
2026-05-07 08:55 35.60461 139.93339 3128 ft 174 kts 265°
2026-05-07 08:56 35.60451 139.91859 2851 ft 172 kts 265°
2026-05-07 08:56 35.60442 139.90402 2610 ft 169 kts 265°
2026-05-07 08:56 35.60432 139.88973 2378 ft 162 kts 264°
2026-05-07 08:56 35.60426 139.87647 2134 ft 147 kts 263°
2026-05-07 08:57 35.60419 139.86430 1935 ft 140 kts 263°
2026-05-07 08:57 35.60410 139.85234 1743 ft 141 kts 263°
2026-05-07 08:57 35.60272 139.84053 1604 ft 136 kts 251°
2026-05-07 08:57 35.60069 139.82925 1399 ft 138 kts 252°
2026-05-07 08:58 35.59848 139.81766 1116 ft 139 kts 249°
2026-05-07 08:58 35.59517 139.80678 922 ft 134 kts 238°
2026-05-07 08:58 35.58962 139.79733 783 ft 142 kts 224°
2026-05-07 08:58 35.58192 139.78932 575 ft 147 kts 213°
2026-05-07 08:59 35.57368 139.78229 265 ft 145 kts 211°
2026-05-07 08:59 35.56555 139.77541 35 ft 136 kts 212°
2026-05-07 08:59 35.55920 139.77011 27 ft 80 kts 219°
2026-05-07 08:59 35.55604 139.76733 25 ft 47 kts 213°
2026-05-07 09:00 35.55447 139.76646 26 ft 16 kts 195°
2026-05-07 09:00 35.55350 139.76622 24 ft 11 kts 186°
2026-05-07 09:00 35.55283 139.76660 22 ft 11 kts 115°
2026-05-07 09:00 35.55306 139.76740 23 ft 11 kts 41°
2026-05-07 09:01 35.55371 139.76798 23 ft 12 kts 35°
2026-05-07 09:01 35.55442 139.76861 23 ft 13 kts 36°
2026-05-07 09:01 35.55521 139.76929 23 ft 14 kts 33°
2026-05-07 09:01 35.55605 139.76998 23 ft 15 kts 32°
2026-05-07 09:02 35.55692 139.77072 26 ft 15 kts 35°
2026-05-07 09:02 35.55780 139.77150 24 ft 16 kts 36°
2026-05-07 09:02 35.55879 139.77237 23 ft 18 kts 36°
2026-05-07 09:02 35.55958 139.77356 22 ft 18 kts 60°
2026-05-07 09:03 35.56018 139.77487 22 ft 17 kts 61°
2026-05-07 09:03 35.56076 139.77611 24 ft 17 kts 60°
2026-05-07 09:03 35.56134 139.77736 22 ft 17 kts 60°
2026-05-07 09:03 35.56195 139.77868 24 ft 18 kts 59°
2026-05-07 09:04 35.56264 139.78006 24 ft 20 kts 58°
2026-05-07 09:04 35.56338 139.78155 23 ft 21 kts 58°
2026-05-07 09:04 35.56382 139.78245 22 ft 11 kts 59°
2026-05-07 09:04 35.56424 139.78333 22 ft 12 kts 65°
2026-05-07 09:05 35.56389 139.78415 23 ft 12 kts 149°
2026-05-07 09:05 35.56312 139.78468 22 ft 13 kts 152°
2026-05-07 09:05 35.56236 139.78518 23 ft 12 kts 151°
2026-05-07 09:05 35.56160 139.78573 25 ft 13 kts 149°
2026-05-07 09:06 35.56079 139.78632 23 ft 14 kts 150°
2026-05-07 09:06 35.55991 139.78696 26 ft 17 kts 149°
2026-05-07 09:06 35.55878 139.78776 23 ft 20 kts 151°
2026-05-07 09:06 35.55761 139.78856 23 ft 19 kts 154°
2026-05-07 09:07 35.55684 139.78824 23 ft 13 kts 239°
2026-05-07 09:07 35.55638 139.78733 23 ft 10 kts 238°
2026-05-07 09:07 35.55609 139.78702 24 ft 7 kts 189°
2026-05-07 09:07 35.55565 139.78726 25 ft 7 kts 149°
2026-05-07 09:08 35.55554 139.78734 24 ft 2 kts 149°
2026-05-07 09:08 35.55553 139.78735 24 ft 0 kts 149°